Weather Roundup
Issued by NWS Springfield, MO

Home | Current Version | Previous Version | Text Only | Print | Product List | Glossary On
Versions: 1 2 3 4 5 6 7 8 9 10 11 12 13 14 15 16 17 18 19 20 21 22 23 24 25 26 27 28 29 30 31 32 33 34 35 36 37 38 39 40 41 42 43 44 45 46 47 48 49 50
000
NZUS99 KSGF 242307
HRRSGF

HOURLY WEATHER
NATIONAL WEATHER SERVICE SPRINGFIELD MO
600 PM CDT TUE APR 24 2018

......SGF CWA......

CITY           SKY/WX    TMP DP  RH WIND       PRES   REMARKS
SPRINGFIELD    SUNNY     74  41  30 N13       30.03R
JOPLIN         MOSUNNY   73  39  29 N12G20    30.05S
WEST PLAINS    MOSUNNY   71  47  42 NW10      30.02R
ROLLA          PTSUNNY   69  48  47 N7        30.02S
OSAGE BEACH    MOSUNNY   73  47  39 N6        30.03R
BRANSON        MOSUNNY   73  39  29 NW10G18   30.04R

......SURROUNDING SGF CWA......

CITY           SKY/WX    TMP DP  RH WIND       PRES   REMARKS
CHANUTE        SUNNY     75  34  22 N10       30.06S
PARSONS        MOSUNNY   76  36  23 N8        30.07R
COFFEYVILLE    SUNNY     77  37  23 N12       30.05S
EMPORIA        CLOUDY    65  45  48 NW23G31   30.10R
GROVE OK       MOSUNNY   77  36  22 N8        30.05S
ROGERS AR      SUNNY     73  40  30 N7        30.06R
SILOAM SPRINGS SUNNY     73  42  32 NW10      30.06R
HARRISON AR    SUNNY     74  37  26 NW13      30.03R
NEAR YELLVILLE SUNNY     76  43  30 NW9       30.00R

......KANSAS AND MISSOURI......

CITY           SKY/WX    TMP DP  RH WIND       PRES   REMARKS
KANSAS CTY INT CLOUDY    71  36  27 N8        30.06S
DOWNTOWN KC    MOSUNNY   75  36  24 N15       30.04S
COLUMBIA       MOSUNNY   75  40  28 NW12      30.01S
SEDALIA        MOSUNNY   77  37  23 NW12      30.03S
ST JOSEPH      CLOUDY    74  33  22 NW12      30.06S
ST LOUIS       PTSUNNY   69  47  45 NW7       29.98R
SPIRIT OF STL  PTSUNNY   72  48  42 N8        29.98S
KIRKSVILLE     MOSUNNY   73  35  25 N14G21    30.03S
WICHITA        CLOUDY    64  48  56 N22G30    30.14R
TOPEKA         PTSUNNY   68  45  43 NW21G33   30.09R
OLATHE         MOSUNNY   75  32  20 N12       30.05S

......TENNESSEE......

CITY           SKY/WX    TMP DP  RH WIND       PRES   REMARKS
MEMPHIS        PTSUNNY   65  54  67 NW12      29.99R
NASHVILLE      LGT RAIN  63  55  75 N15G26    29.90S

......ARKANSAS.......

CITY           SKY/WX    TMP DP  RH WIND       PRES   REMARKS
FAYETTEVILLE   SUNNY     76  36  23 N10       30.03R
FT SMITH       SUNNY     81  36  19 NW10      29.99S
LITTLE ROCK    MOSUNNY   79  45  29 VRB7      29.96S

......OKLAHOMA.......

CITY           SKY/WX    TMP DP  RH WIND       PRES   REMARKS
TULSA          MOSUNNY   79  38  22 N8        30.02S
PONCA CITY     PTSUNNY   77  42  28 N22G31    30.07R
MCALESTER      SUNNY     79  41  25 NE5       30.03S
OKLAHOMA CITY  MOSUNNY   76  45  33 N9        30.05S

......IOWA............

CITY           SKY/WX    TMP DP  RH WIND       PRES   REMARKS
DES MOINES     CLOUDY    70  40  33 N14       30.07R
QUAD CITIES    FAIR      73  30  20 N8G18     29.97S

......ILLINOIS........

CITY           SKY/WX    TMP DP  RH WIND       PRES   REMARKS
QUINCY         SUNNY     73  30  20 N14       29.99S
CHICAGO        FAIR      62  47  57 NE9       29.99R





USA.gov is the U.S. government's official web portal to all federal, state and local government web resources and services.